Total_Precipitation_Accumulation
0.02 0.03 0.08 0.10 0.11 0.14 0.16 0.18 0.24 0.21 0.20 0.26 0.35 0.55 0.79 0.92 1.12 1.28 1.25 1.21 1.28 1.34 1.61 1.83 2.02 2.23 2.47 2.65 2.79 3.01 3.24 3.56 3.77 4.09 4.40 4.60 4.73 4.90 4.95 4.93 4.97 4.99 4.99 5.10
0.04 0.05 0.06 0.08 0.07 0.09 0.11 0.15 0.20 0.22 0.22 0.25 0.37 0.57 0.81 0.92 1.06 1.26 1.33 1.37 1.34 1.42 1.59 1.95 2.28 2.71 2.94 3.04 3.09 3.31 3.62 3.89 4.04 4.42 4.92 5.33 5.47 5.54 5.58 5.57 5.71 5.79 5.81 5.94
0.06 0.06 0.05 0.05 0.05 0.05 0.08 0.11 0.14 0.21 0.25 0.32 0.49 0.85 1.09 1.09 1.22 1.35 1.38 1.52 1.52 1.57 1.84 2.08 2.47 2.77 2.92 3.02 3.13 3.32 3.77 4.17 4.59 5.06 5.62 6.05 6.24 6.26 6.15 5.88 5.98 6.10 5.99 6.06
0.06 0.05 0.03 0.04 0.05 0.05 0.08 0.09 0.10 0.15 0.25 0.40 0.46 1.01 1.41 1.50 1.54 1.46 1.47 1.56 1.54 1.57 1.80 2.09 2.33 2.62 2.77 2.90 3.13 3.35 3.75 4.37 4.84 5.19 5.82 6.42 6.67 6.87 6.96 6.75 6.44 6.21 5.96 5.83
0.04 0.04 0.05 0.06 0.07 0.06 0.07 0.07 0.10 0.13 0.19 0.33 0.38 0.82 1.57 1.72 1.84 1.68 1.62 1.63 1.48 1.42 1.59 1.93 2.07 2.35 2.68 2.78 2.89 3.14 3.69 4.28 4.94 5.54 6.05 6.59 7.03 7.25 7.20 6.79 6.35 5.83 5.44 5.01
0.03 0.03 0.04 0.05 0.04 0.04 0.06 0.08 0.14 0.18 0.28 0.52 0.48 0.76 1.62 1.97 2.13 2.16 1.85 1.64 1.47 1.37 1.43 1.58 1.74 1.97 2.33 2.43 2.64 2.97 3.41 4.13 4.81 5.40 5.94 6.40 6.78 6.83 6.51 5.98 5.45 5.09 4.73 4.24
0.08 0.06 0.04 0.04 0.04 0.05 0.06 0.16 0.44 0.63 0.74 0.74 0.57 0.86 1.65 1.84 1.72 1.69 1.75 1.82 1.61 1.32 1.31 1.49 1.59 1.76 1.99 2.16 2.42 2.78 3.33 3.97 4.39 4.86 5.34 5.65 5.86 5.93 5.84 5.49 5.04 4.70 4.29 3.86
0.18 0.17 0.08 0.04 0.06 0.08 0.07 0.20 0.59 0.84 0.87 0.88 0.90 1.33 1.93 1.74 1.41 1.36 1.48 1.57 1.46 1.38 1.41 1.62 1.74 1.86 2.00 2.12 2.29 2.64 3.09 3.54 3.78 3.99 4.38 4.66 4.77 4.83 4.69 4.44 4.08 3.80 3.51 3.24
0.20 0.22 0.09 0.05 0.05 0.06 0.11 0.17 0.29 0.43 0.53 0.86 1.31 1.81 2.34 2.20 1.63 1.41 1.43 1.40 1.37 1.37 1.40 1.61 1.77 1.88 1.98 2.00 2.16 2.34 2.60 2.84 3.07 3.24 3.43 3.58 3.58 3.50 3.39 3.19 2.94 2.74 2.55 2.29
0.22 0.21 0.14 0.07 0.08 0.10 0.14 0.20 0.26 0.47 0.80 1.18 1.48 2.06 2.78 2.71 2.12 1.69 1.59 1.53 1.42 1.36 1.40 1.56 1.64 1.70 1.75 1.69 1.79 1.92 2.14 2.27 2.43 2.53 2.58 2.50 2.51 2.45 2.31 2.15 2.05 1.91 1.72 1.59
0.29 0.29 0.19 0.12 0.14 0.18 0.16 0.22 0.32 0.46 0.59 1.13 1.69 2.41 2.62 2.76 2.54 2.13 1.71 1.48 1.38 1.33 1.30 1.35 1.40 1.44 1.46 1.39 1.40 1.51 1.68 1.88 1.99 1.99 2.02 1.99 1.92 1.74 1.64 1.54 1.49 1.42 1.33 1.31
0.27 0.37 0.35 0.21 0.17 0.14 0.16 0.22 0.36 0.63 0.68 0.84 1.41 2.50 2.55 2.82 2.71 2.36 1.96 1.63 1.50 1.42 1.30 1.23 1.22 1.23 1.23 1.19 1.17 1.24 1.32 1.41 1.46 1.52 1.54 1.54 1.47 1.37 1.32 1.25 1.21 1.21 1.19 1.18
0.22 0.44 0.70 0.73 0.58 0.27 0.18 0.20 0.27 0.38 0.59 0.89 1.43 2.46 2.59 2.50 2.39 2.34 2.14 1.81 1.61 1.55 1.36 1.30 1.22 1.17 1.20 1.28 1.28 1.14 1.14 1.20 1.20 1.23 1.25 1.25 1.31 1.27 1.23 1.25 1.25 1.23 1.19 1.18
0.16 0.44 0.88 1.23 1.13 0.59 0.39 0.30 0.30 0.43 0.79 0.94 1.26 1.89 2.19 2.20 2.21 2.36 2.35 1.96 1.57 1.45 1.35 1.38 1.43 1.37 1.27 1.29 1.40 1.28 1.14 1.13 1.19 1.18 1.15 1.08 1.07 1.12 1.15 1.15 1.16 1.12 1.09 1.13
0.23 0.51 0.49 0.46 0.46 0.45 0.44 0.39 0.39 0.47 0.55 0.89 1.27 1.71 2.11 2.25 2.20 2.16 2.04 1.81 1.51 1.43 1.50 1.48 1.44 1.43 1.35 1.29 1.32 1.30 1.23 1.15 1.33 1.31 1.26 1.16 1.06 1.07 1.13 1.11 1.06 1.02 0.99 0.93
0.28 0.50 0.47 0.44 0.34 0.39 0.44 0.45 0.49 0.57 0.64 0.86 1.33 1.92 2.26 2.33 2.24 2.18 2.08 1.90 1.80 1.71 1.67 1.66 1.59 1.60 1.60 1.50 1.43 1.36 1.34 1.30 1.38 1.44 1.48 1.48 1.37 1.31 1.31 1.21 1.08 1.07 1.05 0.96
0.31 0.53 0.72 0.73 0.41 0.58 0.95 0.75 0.69 0.80 0.87 1.10 1.69 2.00 1.95 2.03 2.16 2.31 2.36 2.22 2.08 1.99 1.91 1.89 1.84 1.79 1.80 1.76 1.66 1.55 1.46 1.43 1.45 1.50 1.51 1.49 1.47 1.45 1.41 1.24 1.11 1.11 1.08 1.05
0.31 0.56 0.74 0.81 0.86 1.47 1.33 0.74 0.73 0.95 1.09 1.20 1.46 1.56 1.59 1.64 1.77 1.87 1.99 2.09 2.10 1.95 1.87 1.88 1.91 1.88 1.87 1.77 1.68 1.60 1.52 1.52 1.55 1.53 1.50 1.46 1.35 1.34 1.28 1.19 1.18 1.14 1.08 1.05
0.21 0.48 0.79 0.91 1.22 1.46 1.29 0.79 0.78 1.20 1.73 1.42 1.36 1.26 1.15 1.13 1.29 1.67 1.83 1.90 2.07 2.10 1.99 1.96 1.92 1.82 1.77 1.73 1.67 1.60 1.58 1.59 1.60 1.55 1.41 1.31 1.23 1.22 1.15 1.13 1.08 1.02 0.96 0.94
0.24 0.38 0.79 1.02 1.45 1.76 1.65 0.85 0.65 1.11 2.20 1.68 1.43 1.28 1.14 1.25 1.60 1.71 1.62 1.63 1.69 1.78 1.83 1.73 1.58 1.49 1.56 1.60 1.57 1.54 1.52 1.50 1.50 1.31 1.10 1.01 1.02 1.02 0.99 0.94 0.90 0.87 0.85 0.85
0.65 0.72 0.91 1.15 1.59 1.80 1.03 0.59 0.75 1.70 2.19 1.70 1.41 1.27 1.20 1.44 1.58 1.37 1.26 1.31 1.33 1.36 1.34 1.26 1.20 1.26 1.36 1.40 1.36 1.36 1.30 1.29 1.25 1.15 1.03 0.95 0.91 0.85 0.82 0.82 0.83 0.80 0.76 0.80
0.81 0.97 1.07 1.24 1.70 1.86 0.84 0.66 1.12 1.38 1.15 1.14 1.11 1.05 1.02 1.01 0.96 1.00 1.01 1.01 0.98 0.98 1.00 0.95 0.99 1.05 1.10 1.07 1.08 1.17 1.18 1.09 1.02 1.05 1.00 0.95 0.84 0.72 0.71 0.84 0.83 0.80 0.82 0.84
0.78 0.92 1.04 1.24 1.53 1.25 0.73 0.67 0.76 0.80 0.86 0.82 0.81 0.77 0.67 0.64 0.62 0.71 0.71 0.71 0.70 0.71 0.78 0.80 0.82 0.88 0.97 0.99 1.01 1.07 1.05 0.96 0.95 1.03 1.01 0.90 0.76 0.78 0.77 0.83 0.83 0.77 0.76 0.71
0.80 0.61 0.72 0.92 1.02 0.81 0.67 0.62 0.59 0.54 0.57 0.55 0.59 0.62 0.55 0.53 0.60 0.65 0.62 0.60 0.58 0.61 0.64 0.70 0.74 0.76 0.84 0.86 0.88 0.94 0.87 0.86 1.02 1.13 1.07 0.93 0.81 0.75 0.73 0.72 0.66 0.62 0.62 0.61
0.79 0.69 0.73 0.88 0.91 0.85 0.81 0.58 0.50 0.43 0.40 0.40 0.43 0.47 0.47 0.48 0.52 0.52 0.53 0.57 0.59 0.62 0.68 0.71 0.74 0.74 0.71 0.70 0.74 0.72 0.74 0.87 1.12 1.10 0.98 0.86 0.72 0.65 0.63 0.57 0.50 0.45 0.44 0.41
0.53 0.65 0.79 0.84 0.73 0.82 0.86 0.63 0.49 0.47 0.44 0.41 0.36 0.36 0.41 0.46 0.53 0.49 0.47 0.50 0.53 0.55 0.60 0.71 0.70 0.65 0.65 0.69 0.71 0.66 0.68 0.80 1.00 1.02 0.83 0.69 0.59 0.52 0.44 0.40 0.39 0.32 0.27 0.24